<?xml version="1.0"?>
<gpx xmlns="http://www.topografix.com/GPX/1/1" xmlns:xsi="http://www.w3.org/2001/XMLSchema-instance" version="1.1" creator="GPX RubyGem 1.0.0 -- http://dougfales.github.io/gpx/" xsi:schemaLocation="http://www.topografix.com/GPX/1/1 http://www.topografix.com/GPX/1/1/gpx.xsd">
  <metadata>
    <name/>
    <time>2026-05-10T20:04:59+00:00</time>
    <bound minlat="90.0" minlon="180.0" maxlat="-90.0" maxlon="-180.0"/>
  </metadata>
  <trk>
    <name/>
    <trkseg>
      <trkpt lat="50.674256" lon="4.286758">
        <time>1970-01-01T00:00:00+00:00</time>
        <ele>101.0</ele>
      </trkpt>
      <trkpt lat="50.674202" lon="4.286708">
        <time>1970-01-01T00:00:00+00:00</time>
        <ele>101.0</ele>
      </trkpt>
      <trkpt lat="50.673935" lon="4.286683">
        <time>1970-01-01T00:00:00+00:00</time>
        <ele>104.0</ele>
      </trkpt>
      <trkpt lat="50.673427" lon="4.286694">
        <time>1970-01-01T00:00:00+00:00</time>
        <ele>108.0</ele>
      </trkpt>
      <trkpt lat="50.672878" lon="4.286672">
        <time>1970-01-01T00:00:00+00:00</time>
        <ele>113.0</ele>
      </trkpt>
      <trkpt lat="50.672804" lon="4.287408">
        <time>1970-01-01T00:00:00+00:00</time>
        <ele>116.0</ele>
      </trkpt>
      <trkpt lat="50.672601" lon="4.287732">
        <time>1970-01-01T00:00:00+00:00</time>
        <ele>118.0</ele>
      </trkpt>
      <trkpt lat="50.671638" lon="4.288831">
        <time>1970-01-01T00:00:00+00:00</time>
        <ele>125.0</ele>
      </trkpt>
      <trkpt lat="50.671675" lon="4.289725">
        <time>1970-01-01T00:00:00+00:00</time>
        <ele>128.0</ele>
      </trkpt>
      <trkpt lat="50.67168" lon="4.289743">
        <time>1970-01-01T00:00:00+00:00</time>
        <ele>129.0</ele>
      </trkpt>
      <trkpt lat="50.671776" lon="4.290413">
        <time>1970-01-01T00:00:00+00:00</time>
        <ele>131.0</ele>
      </trkpt>
      <trkpt lat="50.672475" lon="4.290749">
        <time>1970-01-01T00:00:00+00:00</time>
        <ele>122.0</ele>
      </trkpt>
      <trkpt lat="50.674351" lon="4.291167">
        <time>1970-01-01T00:00:00+00:00</time>
        <ele>116.0</ele>
      </trkpt>
      <trkpt lat="50.674382" lon="4.291246">
        <time>1970-01-01T00:00:00+00:00</time>
        <ele>116.0</ele>
      </trkpt>
      <trkpt lat="50.674382" lon="4.291246">
        <time>1970-01-01T00:00:00+00:00</time>
        <ele>116.0</ele>
      </trkpt>
      <trkpt lat="50.674351" lon="4.291167">
        <time>1970-01-01T00:00:00+00:00</time>
        <ele>116.0</ele>
      </trkpt>
      <trkpt lat="50.672475" lon="4.290749">
        <time>1970-01-01T00:00:00+00:00</time>
        <ele>122.0</ele>
      </trkpt>
      <trkpt lat="50.671776" lon="4.290413">
        <time>1970-01-01T00:00:00+00:00</time>
        <ele>131.0</ele>
      </trkpt>
      <trkpt lat="50.67168" lon="4.289743">
        <time>1970-01-01T00:00:00+00:00</time>
        <ele>129.0</ele>
      </trkpt>
      <trkpt lat="50.671675" lon="4.289725">
        <time>1970-01-01T00:00:00+00:00</time>
        <ele>128.0</ele>
      </trkpt>
      <trkpt lat="50.671638" lon="4.288831">
        <time>1970-01-01T00:00:00+00:00</time>
        <ele>125.0</ele>
      </trkpt>
      <trkpt lat="50.672601" lon="4.287732">
        <time>1970-01-01T00:00:00+00:00</time>
        <ele>118.0</ele>
      </trkpt>
      <trkpt lat="50.672804" lon="4.287408">
        <time>1970-01-01T00:00:00+00:00</time>
        <ele>116.0</ele>
      </trkpt>
      <trkpt lat="50.672878" lon="4.286672">
        <time>1970-01-01T00:00:00+00:00</time>
        <ele>113.0</ele>
      </trkpt>
      <trkpt lat="50.673427" lon="4.286694">
        <time>1970-01-01T00:00:00+00:00</time>
        <ele>108.0</ele>
      </trkpt>
      <trkpt lat="50.673935" lon="4.286683">
        <time>1970-01-01T00:00:00+00:00</time>
        <ele>104.0</ele>
      </trkpt>
      <trkpt lat="50.674202" lon="4.286708">
        <time>1970-01-01T00:00:00+00:00</time>
        <ele>101.0</ele>
      </trkpt>
      <trkpt lat="50.674256" lon="4.286758">
        <time>1970-01-01T00:00:00+00:00</time>
        <ele>101.0</ele>
      </trkpt>
    </trkseg>
  </trk>
</gpx>
